User: anonymous   Login
Location: Fort Wayne
(41.1310°N, 85.1290°W)
Time: 11:25:32
(UTC-04:00)
Language:

Gbstr 26 Del rocket - Orbit

View from above orbital plane
View from above orbital plane
View from above satellite
View from above satellite

Ground track
Ground track

The orbit data is extracted from the following two-line orbital elements,

1 25876U 99041E   18110.75368965 +.00000040 +00000-0 +46804-4 0  9991
2 25876 051.7654 183.2760 0531077 204.4722 153.0133 14.04206940957815
Epoch (UTC): 20 April 2018 18:05:18
Eccentricity: 0.0531077
inclination: 51.7654°
perigee height: 494 km
apogee height: 1264 km
right ascension of ascending node: 183.2760°
argument of perigee: 204.4722°
revolutions per day: 14.04206940
mean anomaly at epoch: 153.0133°
orbit number at epoch: 95781

The dashed part of the orbit path shows where the satellite is in the earth's shadow,  

DLR